Weather History for Dayton, OH

Change the Weather History Date:

Thursday, September 26, 2013

  Actual Average Record
Temperature  
Mean Temperature 64 °F 61 °F  
Max Temperature 80 °F 72 °F 96 °F (1900)
Min Temperature 48 °F 51 °F 35 °F (1928)
Degree Days  
Heating Degree Days 1 5  
Month to date heating degree days 54 63  
Since 1 July heating degree days 66 65  
Cooling Degree Days 0 2  
Month to date cooling degree days 138 94  
Year to date cooling degree days 1025 876  
Growing Degree Days 14 (Base 50)    
Moisture  
Dew Point 50 °F    
Average Humidity 64    
Maximum Humidity 96    
Minimum Humidity 32    
Precipitation  
Precipitation 0.00 in 0.11 in 3.10 in (2011)
Month to date precipitation 2.14 2.88  
Year to date precipitation 24.52 31.19  
Snow  
Snow 0.00 in 0.00 in - ()
Month to date snowfall 0.0 0.0  
Since 1 July snowfall 0.0 0.0  
Since 1 September snowfall 0.0 0.0  
Snow Depth 0.00 in    
Sea Level Pressure  
Sea Level Pressure 30.03 in    
Wind  
Wind Speed 5 mph (NE)    
Max Wind Speed 13 mph    
Max Gust Speed 18 mph    
Visibility 9 miles    
Events      
T = Trace of Precipitation, MM = Missing Value Source: NWS Daily Summary

Daily Weather History Graph

Daily Weather History Graph

Search for Another Location

Airport:

Trip Planner

Search our weather history database for the weather conditions in past years. The results will help you decide how hot, cold, wet, or windy it might be!

Date:

Astronomy

Sep. 26, 2013 Rise Set
Actual Time 7:28 AM EDT 7:26 PM EDT
Civil Twilight 7:01 AM EDT 7:53 PM EDT
Nautical Twilight 6:30 AM EDT 8:25 PM EDT
Astronomical Twilight 5:58 AM EDT 8:57 PM EDT
Moon No Moon Rise 2:19 PM EDT (9/26)
Length of Visible Light 12h 52m
Length of Day
11h 58m
Waning Gibbous, 55% of the Moon is Illuminated
Sep 26
Waning Gibbous
Sep 26
Last Quarter
Oct 4
New
Oct 11
First Quarter
Oct 18
Full

Hourly Weather History & Observations

Time (EDT) Temp. Dew Point Humidity Pressure Visibility Wind Dir Wind Speed Gust Speed Precip Events Conditions
12:56 AM 53.1 °F 50.0 °F 89% 29.96 in 10.0 mi NE 6.9 mph - N/A   Clear
1:56 AM 52.0 °F 50.0 °F 93% 29.96 in 10.0 mi ENE 5.8 mph - N/A   Clear
2:56 AM 55.0 °F 52.0 °F 89% 29.96 in 10.0 mi NNE 3.5 mph - N/A   Clear
3:56 AM 50.0 °F 48.0 °F 93% 29.97 in 7.0 mi NW 4.6 mph - N/A   Clear
4:56 AM 51.1 °F 48.9 °F 92% 29.97 in 6.0 mi NW 3.5 mph - N/A   Clear
5:56 AM 50.0 °F 48.0 °F 93% 29.99 in 5.0 mi North 4.6 mph - N/A   Clear
6:56 AM 48.9 °F 46.9 °F 93% 30.01 in 4.0 mi NNW 3.5 mph - N/A   Partly Cloudy
7:56 AM 50.0 °F 48.0 °F 93% 30.03 in 3.0 mi NNW 4.6 mph - N/A   Clear
8:56 AM 55.0 °F 52.0 °F 89% 30.04 in 7.0 mi North 3.5 mph - N/A   Clear
9:56 AM 62.1 °F 54.0 °F 75% 30.06 in 10.0 mi NNE 3.5 mph - N/A   Clear
10:56 AM 68.0 °F 55.9 °F 65% 30.06 in 10.0 mi NNE 3.5 mph - N/A   Clear
11:56 AM 72.0 °F 57.0 °F 59% 30.06 in 10.0 mi ENE 6.9 mph - N/A   Partly Cloudy
12:56 PM 77.0 °F 57.0 °F 50% 30.06 in 10.0 mi Calm Calm - N/A   Partly Cloudy
1:56 PM 75.9 °F 55.9 °F 50% 30.05 in 10.0 mi East 4.6 mph - N/A   Partly Cloudy
2:56 PM 78.1 °F 53.1 °F 42% 30.03 in 10.0 mi ESE 5.8 mph - N/A   Partly Cloudy
3:56 PM 80.1 °F 50.0 °F 35% 30.03 in 10.0 mi Calm Calm - N/A   Partly Cloudy
4:56 PM 80.1 °F 48.0 °F 32% 30.03 in 10.0 mi NNE 9.2 mph - N/A   Partly Cloudy
5:56 PM 79.0 °F 46.9 °F 32% 30.04 in 10.0 mi NE 6.9 mph - N/A   Clear
6:56 PM 73.0 °F 48.0 °F 41% 30.05 in 10.0 mi ENE 5.8 mph - N/A   Clear
7:56 PM 70.0 °F 46.0 °F 42% 30.06 in 10.0 mi NE 3.5 mph - N/A   Clear
8:56 PM 66.9 °F 46.9 °F 49% 30.08 in 10.0 mi NE 5.8 mph - N/A   Clear
9:56 PM 61.0 °F 48.9 °F 64% 30.09 in 10.0 mi ENE 9.2 mph - N/A   Clear
10:56 PM 61.0 °F 48.0 °F 62% 30.10 in 10.0 mi ENE 10.4 mph - N/A   Clear
11:56 PM 59.0 °F 46.9 °F 64% 30.10 in 10.0 mi ENE 9.2 mph - N/A   Clear